TimeCST,TemperatureF,Dew PointF,Humidity,Sea Level PressureIn,VisibilityMPH,Wind Direction,Wind SpeedMPH,Gust SpeedMPH,PrecipitationIn,Events,Conditions,WindDirDegrees,DateUTC
12:13 AM,32.0,30.2,93,29.65,7.0,Calm,Calm,-,N/A,,Clear,0,2011-11-25 06:13:00
12:32 AM,30.2,30.2,100,29.64,7.0,Calm,Calm,-,N/A,,Clear,0,2011-11-25 06:32:00
12:53 AM,30.2,28.4,93,29.65,7.0,Calm,Calm,-,N/A,,Clear,0,2011-11-25 06:53:00
1:13 AM,30.2,28.4,93,29.65,5.0,Calm,Calm,-,N/A,,Clear,0,2011-11-25 07:13:00
1:32 AM,30.2,28.4,93,29.65,7.0,Calm,Calm,-,N/A,,Clear,0,2011-11-25 07:32:00
1:53 AM,28.4,28.4,100,29.65,5.0,Calm,Calm,-,N/A,,Clear,0,2011-11-25 07:53:00
2:13 AM,28.4,26.6,93,29.65,5.0,Calm,Calm,-,N/A,,Clear,0,2011-11-25 08:13:00
2:32 AM,28.4,26.6,93,29.65,7.0,Calm,Calm,-,N/A,,Clear,0,2011-11-25 08:32:00
2:53 AM,28.4,26.6,93,29.65,7.0,Calm,Calm,-,N/A,,Clear,0,2011-11-25 08:53:00
3:13 AM,28.4,26.6,93,29.64,7.0,Calm,Calm,-,N/A,,Clear,0,2011-11-25 09:13:00
3:32 AM,28.4,26.6,93,29.64,7.0,Calm,Calm,-,N/A,,Clear,0,2011-11-25 09:32:00
3:53 AM,28.4,26.6,93,29.65,7.0,Calm,Calm,-,N/A,,Clear,0,2011-11-25 09:53:00
4:13 AM,26.6,26.6,100,29.65,7.0,Calm,Calm,-,N/A,,Clear,0,2011-11-25 10:13:00
4:32 AM,26.6,26.6,100,29.66,5.0,Calm,Calm,-,N/A,,Clear,0,2011-11-25 10:32:00
4:53 AM,26.6,26.6,100,29.67,7.0,Calm,Calm,-,N/A,,Clear,0,2011-11-25 10:53:00
5:13 AM,26.6,26.6,100,29.67,7.0,Calm,Calm,-,N/A,,Clear,0,2011-11-25 11:13:00
5:32 AM,26.6,24.8,93,29.67,7.0,Calm,Calm,-,N/A,,Clear,0,2011-11-25 11:32:00
5:53 AM,26.6,24.8,93,29.68,7.0,Calm,Calm,-,N/A,,Clear,0,2011-11-25 11:53:00
6:12 AM,26.6,24.8,93,29.68,7.0,Calm,Calm,-,N/A,,Clear,0,2011-11-25 12:12:00
6:33 AM,26.6,24.8,93,29.68,7.0,Calm,Calm,-,N/A,,Clear,0,2011-11-25 12:33:00
6:52 AM,26.6,24.8,93,29.69,7.0,Calm,Calm,-,N/A,,Clear,0,2011-11-25 12:52:00
7:12 AM,26.6,24.8,93,29.69,7.0,Calm,Calm,-,N/A,,Clear,0,2011-11-25 13:12:00
7:33 AM,26.6,24.8,93,29.70,7.0,Calm,Calm,-,N/A,,Clear,0,2011-11-25 13:33:00
7:53 AM,26.6,24.8,93,29.71,7.0,Calm,Calm,-,N/A,,Clear,0,2011-11-25 13:53:00
8:12 AM,26.6,24.8,93,29.71,7.0,Calm,Calm,-,N/A,,Clear,0,2011-11-25 14:12:00
8:33 AM,28.4,26.6,93,29.72,5.0,Calm,Calm,-,N/A,,Clear,0,2011-11-25 14:33:00
8:52 AM,30.2,28.4,93,29.72,5.0,Calm,Calm,-,N/A,,Clear,0,2011-11-25 14:52:00
9:13 AM,30.2,28.4,93,29.72,7.0,Calm,Calm,-,N/A,,Clear,0,2011-11-25 15:13:00
9:33 AM,32.0,28.4,87,29.72,7.0,Calm,Calm,-,N/A,,Clear,0,2011-11-25 15:33:00
9:52 AM,32.0,30.2,93,29.72,7.0,Calm,Calm,-,N/A,,Scattered Clouds,0,2011-11-25 15:52:00
10:13 AM,33.8,30.2,87,29.74,7.0,Calm,Calm,-,N/A,,Scattered Clouds,0,2011-11-25 16:13:00
10:33 AM,33.8,30.2,87,29.74,10.0,NNE,3.5,-,N/A,,Clear,20,2011-11-25 16:33:00
10:52 AM,35.6,30.2,81,29.73,10.0,NNE,5.8,-,N/A,,Clear,30,2011-11-25 16:52:00
11:13 AM,35.6,30.2,81,29.72,10.0,North,5.8,-,N/A,,Clear,10,2011-11-25 17:13:00
11:33 AM,37.4,32.0,81,29.71,10.0,NNE,4.6,-,N/A,,Clear,30,2011-11-25 17:33:00
11:52 AM,37.4,32.0,81,29.71,10.0,NNE,4.6,-,N/A,,Scattered Clouds,20,2011-11-25 17:52:00
12:13 PM,37.4,32.0,81,29.71,10.0,NNE,4.6,-,N/A,,Scattered Clouds,20,2011-11-25 18:13:00
12:33 PM,37.4,32.0,81,29.71,10.0,NNE,4.6,-,N/A,,Clear,30,2011-11-25 18:33:00
12:52 PM,37.4,30.2,75,29.72,10.0,NNE,4.6,-,N/A,,Clear,30,2011-11-25 18:52:00
1:13 PM,37.4,32.0,81,29.73,10.0,NNE,4.6,-,N/A,,Clear,30,2011-11-25 19:13:00
1:32 PM,37.4,32.0,81,29.73,10.0,ENE,4.6,-,N/A,,Clear,60,2011-11-25 19:32:00
1:52 PM,37.4,30.2,75,29.73,10.0,NE,5.8,-,N/A,,Clear,50,2011-11-25 19:52:00
2:13 PM,37.4,30.2,75,29.72,10.0,NE,5.8,-,N/A,,Clear,40,2011-11-25 20:13:00
2:33 PM,37.4,30.2,75,29.72,10.0,NE,4.6,-,N/A,,Scattered Clouds,40,2011-11-25 20:33:00
2:52 PM,37.4,30.2,75,29.72,10.0,NE,4.6,-,N/A,,Scattered Clouds,50,2011-11-25 20:52:00
3:13 PM,37.4,30.2,75,29.72,10.0,NE,3.5,-,N/A,,Clear,40,2011-11-25 21:13:00
3:33 PM,37.4,30.2,75,29.72,10.0,ENE,4.6,-,N/A,,Clear,60,2011-11-25 21:33:00
3:53 PM,37.4,30.2,75,29.72,10.0,ENE,8.1,-,N/A,,Clear,70,2011-11-25 21:53:00
4:12 PM,37.4,30.2,75,29.73,10.0,ENE,5.8,-,N/A,,Clear,60,2011-11-25 22:12:00
4:32 PM,37.4,30.2,75,29.74,10.0,ENE,5.8,-,N/A,,Clear,60,2011-11-25 22:32:00
4:53 PM,35.6,30.2,81,29.75,10.0,ENE,3.5,-,N/A,,Clear,60,2011-11-25 22:53:00
5:13 PM,35.6,30.2,81,29.75,10.0,ENE,3.5,-,N/A,,Clear,60,2011-11-25 23:13:00
5:32 PM,35.6,30.2,81,29.76,10.0,Calm,Calm,-,N/A,,Clear,0,2011-11-25 23:32:00
5:53 PM,35.6,30.2,81,29.77,10.0,Calm,Calm,-,N/A,,Scattered Clouds,0,2011-11-25 23:53:00
6:13 PM,35.6,30.2,81,29.77,10.0,Calm,Calm,-,N/A,,Scattered Clouds,0,2011-11-26 00:13:00
6:32 PM,35.6,30.2,81,29.77,10.0,ENE,3.5,-,N/A,,Clear,70,2011-11-26 00:32:00
6:53 PM,35.6,30.2,81,29.77,10.0,East,4.6,-,N/A,,Clear,80,2011-11-26 00:53:00
7:13 PM,35.6,30.2,81,29.76,10.0,ENE,3.5,-,N/A,,Scattered Clouds,70,2011-11-26 01:13:00
7:32 PM,35.6,30.2,81,29.75,10.0,East,10.4,-,N/A,,Overcast,90,2011-11-26 01:32:00
7:53 PM,35.6,30.2,81,29.76,10.0,East,9.2,-,N/A,,Overcast,80,2011-11-26 01:53:00
8:13 PM,35.6,30.2,81,29.76,10.0,East,9.2,-,N/A,,Overcast,80,2011-11-26 02:13:00
8:32 PM,35.6,30.2,81,29.77,10.0,East,5.8,-,N/A,,Overcast,80,2011-11-26 02:32:00
8:53 PM,35.6,30.2,81,29.79,10.0,ESE,3.5,-,N/A,,Overcast,110,2011-11-26 02:53:00
9:12 PM,35.6,30.2,81,29.79,10.0,East,8.1,-,N/A,,Overcast,100,2011-11-26 03:12:00
9:33 PM,35.6,30.2,81,29.79,10.0,East,6.9,-,N/A,,Overcast,90,2011-11-26 03:33:00
9:53 PM,35.6,30.2,81,29.79,10.0,East,6.9,-,N/A,,Overcast,90,2011-11-26 03:53:00
10:12 PM,35.6,30.2,81,29.78,10.0,East,5.8,-,N/A,,Overcast,80,2011-11-26 04:12:00
10:33 PM,35.6,30.2,81,29.78,10.0,ENE,4.6,-,N/A,,Overcast,60,2011-11-26 04:33:00
10:53 PM,35.6,30.2,81,29.79,7.0,ENE,6.9,-,N/A,,Overcast,60,2011-11-26 04:53:00
11:12 PM,33.8,32.0,93,29.80,5.0,NE,3.5,-,N/A,,Overcast,40,2011-11-26 05:12:00
11:33 PM,33.8,32.0,93,29.80,4.0,ENE,5.8,-,N/A,,Overcast,60,2011-11-26 05:33:00
11:53 PM,33.8,32.0,93,29.80,4.0,ENE,4.6,-,N/A,,Overcast,60,2011-11-26 05:53:00